Date String (YYYY-MM-DD hh:mm:ss) UTC,Instrument flags,Ambient pressure (hPa),Sample flow (lpm),Bypass flow (lpm),Sample temperature (°C),Ambient temperature (°C),ASC tube jacket temperature (°C),LED temperature (°C),Box temperature (°C),Sample RH (%),Span deviation,Mass concentration (μg/m³),Mass concentration (μg/m³),Mass concentration (μg/m³)
DateTimeUTC,F1_M11,P_M11,Q1_M11,Q2_M11,T1_M11,T2_M11,T3_M11,T4_M11,T5_M11,U1_M11,ZSPAN_M11,X0_M11,X2_M11,X1_M11
2021-12-26 19:00:00,,0807.6,5.01,0.00,22.3,21.5,00.0,31.2,24.0,10.6,0000.0,0002.21,0000.52,0000.24
2021-12-26 19:01:00,,0807.6,4.99,0.00,22.3,21.5,00.0,31.2,24.0,10.6,0000.0,0002.20,0000.52,0000.25
2021-12-26 19:02:00,,0807.6,5.00,0.00,22.3,21.5,00.0,31.2,24.0,10.5,0000.0,0002.14,0000.47,0000.24
2021-12-26 19:03:00,,0807.4,4.99,0.00,22.3,21.4,00.0,31.2,24.0,10.6,0000.0,0002.25,0000.48,0000.24
2021-12-26 19:04:00,,0807.4,5.01,0.00,22.3,21.4,00.0,31.2,24.0,10.5,0000.0,0002.22,0000.47,0000.24
2021-12-26 19:05:00,,0807.4,5.00,0.00,22.3,21.5,00.0,31.2,24.1,10.4,0000.0,0002.23,0000.47,0000.24
2021-12-26 19:06:00,,0807.4,5.01,0.00,22.3,21.5,00.0,31.3,24.0,10.4,0000.0,0001.65,0000.47,0000.24
2021-12-26 19:07:00,,0807.4,5.01,0.00,22.3,21.5,00.0,31.3,24.0,10.4,0000.0,0001.01,0000.47,0000.24
2021-12-26 19:08:00,,0807.5,5.01,0.00,22.3,21.4,00.0,31.3,23.9,10.3,0000.0,0001.00,0000.45,0000.23
2021-12-26 19:09:00,,0807.4,4.99,0.00,22.3,21.4,00.0,31.3,24.0,10.4,0000.0,0001.72,0000.43,0000.23
2021-12-26 19:10:00,,0807.4,5.00,0.00,22.3,21.4,00.0,31.3,23.9,09.8,0000.0,0002.49,0000.42,0000.23
2021-12-26 19:11:00,,0807.4,5.00,0.00,22.3,21.4,00.0,31.3,23.9,09.7,0000.0,0002.59,0000.44,0000.22
2021-12-26 19:12:00,,0807.4,5.01,0.00,22.3,21.5,00.0,31.3,24.0,10.1,0000.0,0002.60,0000.44,0000.22
2021-12-26 19:13:00,,0807.4,5.00,0.00,22.3,21.5,00.0,31.3,23.9,10.0,0000.0,0003.00,0000.45,0000.22
2021-12-26 19:14:00,,0807.4,4.99,0.00,22.3,21.5,00.0,31.3,23.9,09.8,0000.0,0002.86,0000.44,0000.22
2021-12-26 19:15:00,,0807.4,5.01,0.00,22.3,21.5,00.0,31.3,23.9,09.6,0000.0,0002.84,0000.43,0000.21
2021-12-26 19:16:00,,0807.6,4.99,0.00,22.3,21.4,00.0,31.3,23.9,09.4,0000.0,0002.85,0000.45,0000.21
2021-12-26 19:17:00,,0807.6,5.01,0.00,22.3,21.4,00.0,31.3,23.9,09.3,0000.0,0002.88,0000.44,0000.21
2021-12-26 19:18:00,,0807.5,5.00,0.00,22.3,21.4,00.0,31.3,24.0,09.0,0000.0,0002.98,0000.44,0000.21
2021-12-26 19:19:00,,0807.5,4.99,0.00,22.3,21.4,00.0,31.3,24.0,09.2,0000.0,0002.95,0000.44,0000.21
2021-12-26 19:20:00,,0807.5,5.00,0.00,22.3,21.4,00.0,31.3,23.9,09.3,0000.0,0002.12,0000.41,0000.20
2021-12-26 19:21:00,,0807.3,5.00,0.00,22.3,21.4,00.0,31.3,23.9,09.5,0000.0,0001.33,0000.39,0000.19
2021-12-26 19:22:00,,0807.3,4.99,0.00,22.3,21.4,00.0,31.3,23.9,09.3,0000.0,0001.20,0000.35,0000.19
2021-12-26 19:23:00,,0807.3,5.00,0.00,22.3,21.4,00.0,31.3,23.9,09.5,0000.0,0001.07,0000.31,0000.18
2021-12-26 19:24:00,,0807.3,5.01,0.00,22.3,21.4,00.0,31.3,23.9,09.6,0000.0,0000.71,0000.31,0000.18
2021-12-26 19:25:00,,0807.3,5.00,0.00,22.2,21.3,00.0,31.3,23.9,09.5,0000.0,0000.76,0000.32,0000.18
2021-12-26 19:26:00,,0807.1,4.99,0.00,22.2,21.4,00.0,31.3,23.9,09.1,0000.0,0001.03,0000.35,0000.18
2021-12-26 19:27:00,,0807.1,5.00,0.00,22.2,21.4,00.0,31.3,23.9,09.0,0000.0,0001.23,0000.37,0000.18
2021-12-26 19:28:00,,0807.2,5.00,0.00,22.2,21.3,00.0,31.3,23.9,09.3,0000.0,0001.30,0000.40,0000.18
2021-12-26 19:29:00,,0807.1,5.00,0.00,22.2,21.3,00.0,31.3,23.9,09.6,0000.0,0001.27,0000.41,0000.18
2021-12-26 19:30:00,,0807.2,5.01,0.00,22.2,21.4,00.0,31.3,23.9,09.4,0000.0,0001.30,0000.42,0000.19
2021-12-26 19:31:00,,0807.1,5.01,0.00,22.2,21.4,00.0,31.3,23.9,09.5,0000.0,0001.40,0000.44,0000.18
2021-12-26 19:32:00,,0807.1,4.99,0.00,22.2,21.4,00.0,31.3,23.9,09.6,0000.0,0001.40,0000.44,0000.18
2021-12-26 19:33:00,,0807.1,5.00,0.00,22.2,21.3,00.0,31.3,23.9,09.7,0000.0,0001.50,0000.49,0000.18
2021-12-26 19:34:00,,0807.1,4.99,0.00,22.2,21.3,00.0,31.3,23.9,09.8,0000.0,0001.54,0000.50,0000.18
2021-12-26 19:35:00,,0807.1,5.02,0.00,22.2,21.2,00.0,31.3,23.9,09.8,0000.0,0001.53,0000.50,0000.17
2021-12-26 19:36:00,,0807.1,5.00,0.00,22.2,21.3,00.0,31.3,23.9,09.8,0000.0,0001.51,0000.50,0000.18
2021-12-26 19:37:00,,0807.1,5.00,0.00,22.2,21.3,00.0,31.3,23.9,09.8,0000.0,0001.25,0000.46,0000.18
2021-12-26 19:38:00,,0807.1,5.01,0.00,22.2,21.3,00.0,31.3,23.9,09.9,0000.0,0001.24,0000.46,0000.18
2021-12-26 19:39:00,,0807.1,4.99,0.00,22.2,21.3,00.0,31.3,23.9,09.8,0000.0,0001.17,0000.44,0000.18
2021-12-26 19:40:00,,0807.1,5.01,0.00,22.3,21.3,00.0,31.3,23.9,09.8,0000.0,0001.14,0000.45,0000.18
2021-12-26 19:41:00,,0807.1,4.99,0.00,22.2,21.3,00.0,31.3,23.9,09.7,0000.0,0001.10,0000.45,0000.17
2021-12-26 19:42:00,,0807.0,5.00,0.00,22.2,21.3,00.0,31.3,23.9,09.7,0000.0,0001.04,0000.44,0000.16
2021-12-26 19:43:00,,0807.0,4.99,0.00,22.2,21.2,00.0,31.3,23.8,09.8,0000.0,0001.04,0000.43,0000.16
2021-12-26 19:44:00,,0807.0,5.00,0.00,22.2,21.2,00.0,31.3,23.8,09.9,0000.0,0001.07,0000.42,0000.16
2021-12-26 19:45:00,,0807.0,5.00,0.00,22.2,21.2,00.0,31.2,23.8,09.8,0000.0,0001.17,0000.45,0000.16
2021-12-26 19:46:00,,0806.9,5.00,0.00,22.2,21.2,00.0,31.2,23.8,09.7,0000.0,0001.31,0000.48,0000.17
2021-12-26 19:47:00,,0806.9,4.99,0.00,22.2,21.2,00.0,31.2,23.8,09.8,0000.0,0001.36,0000.46,0000.16
2021-12-26 19:48:00,,0806.8,5.00,0.00,22.2,21.3,00.0,31.2,23.8,09.9,0000.0,0001.49,0000.46,0000.16
2021-12-26 19:49:00,,0806.8,5.01,0.00,22.2,21.3,00.0,31.2,23.8,10.1,0000.0,0001.33,0000.44,0000.15
2021-12-26 19:50:00,,0806.8,5.01,0.00,22.2,21.4,00.0,31.2,23.8,10.1,0000.0,0001.24,0000.42,0000.15
2021-12-26 19:51:00,,0806.9,4.98,0.00,22.2,21.4,00.0,31.2,23.8,10.1,0000.0,0001.18,0000.39,0000.14
2021-12-26 19:52:00,,0806.8,5.01,0.00,22.2,21.4,00.0,31.2,23.8,10.0,0000.0,0001.18,0000.39,0000.14
2021-12-26 19:53:00,,0806.8,5.00,0.00,22.2,21.4,00.0,31.2,23.8,10.0,0000.0,0001.23,0000.41,0000.15
2021-12-26 19:54:00,,0806.7,5.00,0.00,22.2,21.4,00.0,31.2,23.8,10.0,0000.0,0001.30,0000.41,0000.16
2021-12-26 19:55:00,,0806.8,5.00,0.00,22.1,21.4,00.0,31.2,23.8,10.0,0000.0,0001.21,0000.38,0000.16
2021-12-26 19:56:00,,0806.7,5.00,0.00,22.1,21.4,00.0,31.2,23.8,10.0,0000.0,0001.16,0000.34,0000.15
2021-12-26 19:57:00,,0806.7,5.01,0.00,22.1,21.4,00.0,31.2,23.8,10.0,0000.0,0001.12,0000.33,0000.15
2021-12-26 19:58:00,,0806.7,5.00,0.00,22.1,21.4,00.0,31.2,23.8,10.1,0000.0,0001.07,0000.34,0000.15
2021-12-26 19:59:00,,0806.8,4.99,0.00,22.1,21.4,00.0,31.2,23.8,10.1,0000.0,0000.94,0000.34,0000.16
